This is the latest recevied weather packets stored in our database for station/object K4MGY-13. If no packets are shown the sender has not sent any weather packets the latest 1 day(s).
| Time | Temp. | Humidity | Pressure | Rain* | Wind** | Luminosity | Snow |
|---|---|---|---|---|---|---|---|
| 1778032239 | 21.67° C | 60% | 1007.5 hPa | 0 mm | 0.89 m/s, 186° | - | - |
| 1778031909 | 21.67° C | 60% | 1007.5 hPa | 0 mm | 1.34 m/s, 194° | - | - |
| 1778031279 | 21.67° C | 60% | 1007.5 hPa | 0 mm | 0.89 m/s, 195° | - | - |
| 1778030950 | 21.67° C | 60% | 1007.5 hPa | 0 mm | 0.89 m/s, 171° | - | - |
| 1778030619 | 21.67° C | 59% | 1007.5 hPa | 0 mm | 0.89 m/s, 190° | - | - |
| 1778030019 | 21.67° C | 59% | 1007.5 hPa | 0 mm | 0.89 m/s, 181° | - | - |
| 1778029719 | 21.67° C | 59% | 1007.8 hPa | 0 mm | 1.34 m/s, 197° | - | - |
| 1778029390 | 21.67° C | 59% | 1007.8 hPa | 0 mm | 1.34 m/s, 203° | - | - |
| 1778029089 | 21.67° C | 59% | 1007.8 hPa | 0 mm | 0.89 m/s, 195° | - | - |
| 1778028489 | 21.67° C | 58% | 1007.5 hPa | 0 mm | 0.89 m/s, 200° | - | - |
| 1778028189 | 21.67° C | 58% | 1007.5 hPa | 0 mm | 0.89 m/s, 203° | - | - |
| 1778027859 | 21.67° C | 57% | 1007.5 hPa | 0 mm | 1.34 m/s, 187° | - | - |
| 1778027529 | 21.67° C | 57% | 1007.5 hPa | 0 mm | 0.89 m/s, 206° | - | - |
| 1778027229 | 21.67° C | 57% | 1007.5 hPa | 0 mm | 1.34 m/s, 194° | - | - |
| 1778026929 | 21.67° C | 57% | 1007.1 hPa | 0 mm | 0.89 m/s, 177° | - | - |
| 1778026629 | 21.67° C | 57% | 1007.5 hPa | 0 mm | 0.45 m/s, 198° | - | - |
| 1778026329 | 21.67° C | 57% | 1007.1 hPa | 0 mm | 1.34 m/s, 207° | - | - |
| 1778026029 | 21.67° C | 56% | 1007.1 hPa | 0 mm | 1.34 m/s, 202° | - | - |
| 1778025399 | 21.67° C | 56% | 1007.1 hPa | 0 mm | 0.89 m/s, 199° | - | - |
| 1778025100 | 21.67° C | 56% | 1007.1 hPa | 0 mm | 0.89 m/s, 196° | - | - |
| 1778024771 | 21.67° C | 56% | 1007.5 hPa | 0 mm | 0.89 m/s, 172° | - | - |
| 1778024439 | 21.67° C | 56% | 1007.5 hPa | 0 mm | 0.45 m/s, 182° | - | - |
| 1778024108 | 21.67° C | 56% | 1007.5 hPa | 0 mm | 0.89 m/s, 173° | - | - |
| 1778023778 | 21.67° C | 56% | 1007.5 hPa | 0 mm | 0.45 m/s, 176° | - | - |
| 1778023449 | 21.67° C | 56% | 1007.5 hPa | 0 mm | 1.34 m/s, 207° | - | - |
* Rain latest hour (hover to see other rain measurements)
** Current wind speed in m/s (hover to see current wind gust speed)